Roma, Italy

11:46 PM CET die 16o December, anno 2018 (GMT +0100)
Albano Laziale | | Change Station

Elev 1476 ft 41.73 °N, 12.67 °E | Updated 1 minute ago

Pluvia
Pluvia
44.5 °F
Feels Like 37 °F
N
16
Ventus Variabilis Ventus from Magis Eurus quam Auster
Gusts 22.0 mph

Hodie
High -- | Low -- °F
--% Chance of Precip.
Yesterday
High -- | Low -- °F
Precip. -- in
Pressio 29.89 in
Visibilitas 6.2 milia passuum
Clouds Plerumque Nubila 4500 ft
Frigus Venti 37 °F
Frigus in quo Ros apparet 43 °F
Umor 95%
Rainfall 0.05 in
Snow Depth Not available.
7:30 AM 4:39 PM
Waxing Gibbous, 64% visible
METAR LIRA 162220Z 15019G32KT 9999 -RA BKN045 11/07 Q1012 RERA
Pressio 29.89 in
Visibilitas 6.2 milia passuum
Clouds Plerumque Nubila 4500 ft
Frigus Venti 37 °F
Frigus in quo Ros apparet 43 °F
Umor 95%
Rainfall 0.05 in
Snow Depth Not available.
7:30 AM 4:39 PM
Waxing Gibbous, 64% visible
METAR LIRA 162220Z 15019G32KT 9999 -RA BKN045 11/07 Q1012 RERA

Get Severe Weather Alerts

Thanks for signing up!

Be on the lookout for a verification email in your inbox.

You'll start receiving the daily forecast at 6 AM.

×

10-Day Weather Forecast

×

Almanac

Astronomy

Dec. 16, 2018 Rise Set
Actual Time
Civil Twilight
Nautical Twilight
Astronomical Twilight
Moon
Length Of Visible Light
Length of Day
Tomorrow will be .
, % of the Moon is Illuminated

Today's Extremes

Country Highs Country Lows

Community

WunderPhotos

Category 6

Welcome to Category 6. This is the collective home for Weather Underground's featured writeups by Dr. Jeff Masters (right), Bob Henson (left), Chris Burt, and other regular contributors.

Nearby

Air Quality

  Air Quality AQ Index Pollutant
Not available.

Snow Depth

Station Depth Elevation

Earthquake Activity

City Distance Mag. Time & Date
Minimum magnitude displayed is 2.5.

Coastal Water Temperatures

Locus Calor

Stations

Nearby Weather Stations

Station Location Temp Frigus Venti Frigus in quo Ros apparet Umor Ventus Precip. Elev Renovata Type